Location: Blandford
(50.8667°N, 2.1667°W)
Time: 20:52:38
(UTC+00:00)

Cosmos 1174 - Pass Details

Date: 09 April 2020
Orbit: 371 x 1148 km, 66.1° (Epoch: 26 May)

Event Time Altitude Azimuth Distance (km) Brightness Sun altitude
Rises 19:53:02 0° 324° (NW) 2,560 8.4 -9.4°
Reaches altitude 10° 19:55:02 10° 331° (NNW) 1,768 7.3 -9.7°
Maximum altitude 19:58:52 48° 47° (NE) 798 4.5 -10.3°
Enters shadow 20:02:42 15° 118° (ESE) 1,850 5.8 -10.8°
